Tracking 22130 objects as of 21-Jan-2021
HD Live streaming from Space Station
objects crossing your sky now

STARLINK-1096

Track STARLINK-1096 now!
10-day predictions
STARLINK-1096 is classified as:


NORAD ID: 44942
Int'l Code: 2020-001AE
Perigee: 553.4 km
Apogee: 555.5 km
Inclination: 53.0 °
Period: 95.6 minutes
Semi major axis: 6925 km
RCS: Unknown
Launch date: January 7, 2020
Source: United States (US)
Launch site: AIR FORCE EASTERN TEST RANGE (AFETR)
aabbcc
Your satellite tracking list
Your tracking list is empty




NASA's NSSDC Master Catalog

Two Line Element Set (TLE):
1 44942U 20001AE  21021.35027007  .00004858  00000-0  34503-3 0  9999
2 44942  53.0105  96.3466 0001480 128.1249 231.9873 15.06373086 57771
Source of the keplerian elements: AFSPC